Broomfield, CO

8:19 PM MST on February 20, 2017 (GMT -0700)
Jeffco

Weather History for KBJC - May, 2014

Change the Weather History Date:

Wednesday, May 14, 2014

  Actual Average Record
Temperature  
Mean Temperature 45 °F -  
Max Temperature 55 °F 67 °F 84 °F (2013)
Min Temperature 35 °F 44 °F 33 °F (1986)
Degree Days  
Heating Degree Days 20    
Moisture  
Dew Point 25 °F    
Average Humidity 51    
Maximum Humidity 66    
Minimum Humidity 30    
Precipitation  
Precipitation 0.00 in - - ()
Sea Level Pressure  
Sea Level Pressure 30.39 in    
Wind  
Wind Speed 9 mph (WNW)    
Max Wind Speed 14 mph    
Max Gust Speed 26 mph    
Visibility 10 miles    
Events      
Averages and records for this station are not official NWS values.
T = Trace of Precipitation, MM = Missing Value Source: NWS Daily Summary

Daily Weather History Graph

Daily Weather History Graph

Search for Another Location

Airport or City:

Trip Planner

Search our weather history database for the weather conditions in past years. The results will help you decide how hot, cold, wet, or windy it might be!

Date:

Astronomy

May. 14, 2014 Rise Set
Actual Time 5:46 AM MDT 8:07 PM MDT
Civil Twilight 5:15 AM MDT 8:38 PM MDT
Nautical Twilight 4:38 AM MDT 9:16 PM MDT
Astronomical Twilight 3:56 AM MDT 9:58 PM MDT
Moon 8:16 PM MDT (5/14) 5:46 AM MDT (5/14)
Length of Visible Light 15h 22m
Length of Day
14h 21m
Full, 100% of the Moon is Illuminated
May 14
Full
May 14
Full
May 21
Last Quarter
May 28
New
Jun 5
First Quarter

Hourly Weather History & Observations

Time (MDT) Temp. Windchill Dew Point Humidity Pressure Visibility Wind Dir Wind Speed Gust Speed Precip Events Conditions
12:15 AM 37.4 °F 32.8 °F 23.0 °F 56% 30.45 in 10.0 mi West 5.8 mph - N/A   Clear
12:35 AM 37.4 °F 30.3 °F 23.0 °F 56% 30.45 in 10.0 mi WNW 10.4 mph - N/A   Clear
12:55 AM 39.2 °F 32.5 °F 21.2 °F 49% 30.45 in 10.0 mi WNW 10.4 mph - N/A   Clear
1:14 AM 39.2 °F 32.0 °F 21.2 °F 49% 30.44 in 10.0 mi WNW 11.5 mph - N/A   Clear
1:35 AM 37.4 °F 30.3 °F 23.0 °F 56% 30.45 in 10.0 mi WNW 10.4 mph - N/A   Clear
1:55 AM 37.4 °F 30.3 °F 23.0 °F 56% 30.44 in 10.0 mi NW 10.4 mph - N/A   Scattered Clouds
2:15 AM 37.4 °F 29.8 °F 23.0 °F 56% 30.44 in 10.0 mi WNW 11.5 mph - N/A   Scattered Clouds
2:35 AM 37.4 °F 29.8 °F 23.0 °F 56% 30.44 in 10.0 mi WNW 11.5 mph - N/A   Clear
3:15 AM 35.6 °F 30.7 °F 23.0 °F 60% 30.43 in 10.0 mi WNW 5.8 mph - N/A   Clear
3:35 AM 35.6 °F - 23.0 °F 60% 30.43 in 10.0 mi Calm Calm - N/A   Scattered Clouds
3:55 AM 35.6 °F 29.2 °F 23.0 °F 60% 30.42 in 10.0 mi West 8.1 mph - N/A   Scattered Clouds
4:15 AM 35.6 °F 30.7 °F 23.0 °F 60% 30.42 in 10.0 mi West 5.8 mph - N/A   Clear
4:35 AM 35.6 °F 28.6 °F 23.0 °F 60% 30.41 in 10.0 mi WNW 9.2 mph - N/A   Clear
5:14 AM 37.4 °F 30.3 °F 23.0 °F 56% 30.41 in 10.0 mi WNW 10.4 mph - N/A   Clear
5:35 AM 35.6 °F 27.5 °F 23.0 °F 60% 30.42 in 10.0 mi WNW 11.5 mph - N/A   Clear
5:49 AM 39.2 °F 31.2 °F 21.2 °F 49% 30.42 in 35.0 mi WNW 13.8 mph - N/A   Scattered Clouds
5:55 AM 37.4 °F 30.3 °F 23.0 °F 56% 30.41 in 10.0 mi WNW 10.4 mph - N/A   Scattered Clouds
6:47 AM 41.0 °F 34.7 °F 24.8 °F 53% 30.42 in 35.0 mi WNW 10.4 mph - N/A   Scattered Clouds
7:47 AM 46.4 °F 45.2 °F 21.2 °F 37% 30.42 in 50.0 mi NNW 3.5 mph - N/A   Scattered Clouds
10:46 AM 53.6 °F - 23.0 °F 30% 30.39 in 50.0 mi Variable 6.9 mph - N/A   Mostly Cloudy
11:47 AM 51.8 °F - 24.8 °F 35% 30.40 in 50.0 mi Variable 5.8 mph - N/A   Mostly Cloudy
12:50 PM 50.0 °F - 24.8 °F 37% 30.38 in 40.0 mi Variable 5.8 mph - N/A   Mostly Cloudy
1:07 PM 53.6 °F - 26.6 °F 35% 30.07 in 35.0 mi NE 9.2 mph 18.4 mph N/A   Mostly Cloudy
1:46 PM 55.4 °F - 26.6 °F 33% 30.36 in 35.0 mi West 5.8 mph - N/A   Mostly Cloudy
3:47 PM 55.4 °F - 30.2 °F 38% 30.34 in 40.0 mi ENE 9.2 mph - N/A   Mostly Cloudy
4:50 PM 55.4 °F - 28.4 °F 36% 30.33 in 40.0 mi East 5.8 mph - N/A   Mostly Cloudy
6:52 PM 51.8 °F - 30.2 °F 44% 30.31 in 40.0 mi SW 4.6 mph - N/A   Mostly Cloudy
7:50 PM 51.8 °F - 30.2 °F 44% 30.32 in 40.0 mi ESE 11.5 mph - N/A   Mostly Cloudy
8:45 PM 50.0 °F - 28.4 °F 43% 30.34 in 40.0 mi NE 13.8 mph 26.5 mph N/A   Mostly Cloudy
9:45 PM 48.2 °F - 30.2 °F 50% 30.37 in 20.0 mi WSW 13.8 mph - N/A   Mostly Cloudy
11:14 PM 44.6 °F 41.4 °F 33.8 °F 66% 30.35 in 10.0 mi SSW 5.8 mph - N/A   Overcast
11:35 PM 44.6 °F 40.2 °F 33.8 °F 66% 30.35 in 10.0 mi SSW 8.1 mph - N/A   Overcast
11:55 PM 44.6 °F 39.7 °F 33.8 °F 66% 30.35 in 10.0 mi South 9.2 mph - N/A   Overcast